Change the Weather History Date:

Thursday, January 10, 2013

  Actual Average (KGUC) Record (KGUC)
Temperature  
Mean Temperature 20 °F -  
Max Temperature 28 °F 24 °F 42 °F (1999)
Min Temperature 12 °F 0 °F -20 °F (2006)
Degree Days  
Heating Degree Days 45    
Moisture  
Dew Point -2 °F    
Average Humidity 39    
Maximum Humidity 100    
Minimum Humidity 17    
Precipitation  
Precipitation 0.00 in - - ()
Sea Level Pressure  
Sea Level Pressure 29.99 in    
Wind  
Wind Speed 23 mph (SW)    
Max Wind Speed 40 mph    
Max Gust Speed 50 mph    
Averages and records for this station are not official NWS values.
T = Trace of Precipitation, MM = Missing Value Source: NWS Daily Summary

Daily Weather History Graph

Daily Weather History Graph

Search for Another Location

Airport or City:

Trip Planner

Search our weather history database for the weather conditions in past years. The results will help you decide how hot, cold, wet, or windy it might be!

Date:

Astronomy

Jan. 10, 2013 Rise Set
Actual Time 7:22 AM MST 5:03 PM MST
Civil Twilight 6:53 AM MST 5:32 PM MST
Nautical Twilight 6:20 AM MST 6:05 PM MST
Astronomical Twilight 5:48 AM MST 6:37 PM MST
Moon 6:05 AM MST (1/10) 4:14 PM MST (1/10)
Length of Visible Light 10h 39m
Length of Day
9h 41m
Waning Crescent, 2% of the Moon is Illuminated
Jan 10
Waning Crescent
Jan 11
New
Jan 18
First Quarter
Jan 26
Full
Feb 3
Last Quarter

Hourly Weather History & Observations

Time (MST) Temp. Windchill Dew Point Humidity Pressure Visibility Wind Dir Wind Speed Gust Speed Precip Events Conditions
12:17 AM 21.2 °F 6.8 °F 1.4 °F 42% 30.30 in - SW 17.3 mph - N/A   Clear
12:37 AM 21.2 °F 7.8 °F -0.4 °F 39% 30.30 in - SW 15.0 mph - N/A   Clear
12:57 AM 23.0 °F 10.1 °F -0.4 °F 36% 30.29 in - SW 15.0 mph - N/A   Clear
1:17 AM 23.0 °F 9.6 °F -0.4 °F 36% 30.27 in - SSW 16.1 mph - N/A   Clear
1:37 AM 23.0 °F 9.2 °F -0.4 °F 36% 30.27 in - SSW 17.3 mph - N/A   Clear
1:57 AM 23.0 °F 10.1 °F -0.4 °F 36% 30.27 in - SSW 15.0 mph - N/A   Clear
2:17 AM 23.0 °F 9.2 °F -0.4 °F 36% 30.25 in - SSW 17.3 mph - N/A   Clear
2:37 AM 23.0 °F - -4.0 °F 31% 30.25 in - North - - N/A   Clear
2:57 AM 23.0 °F 9.2 °F -4.0 °F 31% 30.23 in - SW 17.3 mph - N/A   Clear
3:17 AM 21.2 °F 6.4 °F -5.8 °F 30% 30.22 in - SW 18.4 mph - N/A   Clear
3:37 AM 23.0 °F 8.7 °F -7.6 °F 26% 30.21 in - SW 18.4 mph - N/A   Clear
3:57 AM 23.0 °F 8.0 °F -7.6 °F 26% 30.20 in - SSW 20.7 mph 26.5 mph N/A   Clear
4:17 AM 21.2 °F 6.0 °F -7.6 °F 28% 30.18 in - SSW 19.6 mph - N/A   Clear
4:37 AM 21.2 °F 6.0 °F -7.6 °F 28% 30.17 in - SSW 19.6 mph - N/A   Clear
4:57 AM 23.0 °F 8.7 °F -9.4 °F 24% 30.17 in - SSW 18.4 mph - N/A   Clear
5:37 AM 23.0 °F 8.3 °F -9.4 °F 24% 30.15 in - SSW 19.6 mph - N/A   Clear
5:57 AM 23.0 °F 7.6 °F -13.0 °F 20% 30.14 in - SW 21.9 mph - N/A   Clear
6:17 AM 23.0 °F 8.3 °F -13.0 °F 20% 30.14 in - SW 19.6 mph - N/A   Clear
6:57 AM 23.0 °F 7.2 °F -14.8 °F 18% 30.12 in - SW 23.0 mph - N/A   Clear
7:37 AM 23.0 °F 5.4 °F -14.8 °F 18% 30.10 in - SW 29.9 mph - N/A   Clear
7:57 AM 23.0 °F 6.6 °F -14.8 °F 18% 30.09 in - SW 25.3 mph - N/A   Clear
8:17 AM 23.0 °F 5.4 °F -13.0 °F 20% 30.09 in - SW 29.9 mph - N/A   Clear
8:37 AM 24.8 °F 7.9 °F -14.8 °F 17% 30.08 in - SW 29.9 mph - N/A   Clear
8:57 AM 24.8 °F 8.1 °F -14.8 °F 17% 30.07 in - SW 28.8 mph - N/A   Clear
9:17 AM 24.8 °F 9.0 °F -13.0 °F 19% 30.07 in - SW 25.3 mph - N/A   Clear
9:37 AM 24.8 °F 8.1 °F -11.2 °F 20% 30.06 in - SW 28.8 mph - N/A   Clear
9:57 AM 24.8 °F 7.6 °F -9.4 °F 22% 30.06 in - SW 31.1 mph - N/A   Scattered Clouds
10:17 AM 26.6 °F 10.3 °F -11.2 °F 19% 30.06 in - SW 29.9 mph - N/A   Mostly Cloudy
10:37 AM 26.6 °F 10.0 °F -9.4 °F 21% 30.04 in - SW 31.1 mph - N/A   Mostly Cloudy
10:57 AM 26.6 °F 10.0 °F -9.4 °F 21% 30.04 in - SW 31.1 mph - N/A   Mostly Cloudy
11:17 AM 26.6 °F 10.0 °F -7.6 °F 22% 30.02 in - SW 31.1 mph - N/A   Clear
11:37 AM 26.6 °F 9.3 °F -7.6 °F 22% 30.00 in - SW 34.5 mph - N/A   Clear
11:57 AM 26.6 °F 8.3 °F -7.6 °F 22% 29.98 in - SW 40.3 mph 49.5 mph N/A   Clear
12:37 PM 26.6 °F 8.9 °F -5.8 °F 24% 29.96 in - SW 36.8 mph 43.7 mph N/A   Clear
12:57 PM 28.4 °F 11.6 °F -5.8 °F 23% 29.96 in - SW 35.7 mph 41.4 mph N/A   Clear
1:17 PM 26.6 °F 9.3 °F -5.8 °F 24% 29.94 in - SW 34.5 mph 42.6 mph N/A   Clear
1:37 PM 26.6 °F 9.8 °F -5.8 °F 24% 29.93 in - SW 32.2 mph - N/A   Clear
1:57 PM 26.6 °F 9.8 °F -5.8 °F 24% 29.93 in - SW 32.2 mph - N/A   Clear
2:17 PM 26.6 °F 9.1 °F -4.0 °F 26% 29.91 in - SW 35.7 mph 39.1 mph N/A   Clear
2:37 PM 26.6 °F 9.1 °F -4.0 °F 26% 29.91 in - SW 35.7 mph 42.6 mph N/A   Clear
2:57 PM 26.6 °F 9.1 °F -4.0 °F 26% 29.91 in - SW 35.7 mph 41.4 mph N/A   Clear
3:17 PM 26.6 °F 8.9 °F -4.0 °F 26% 29.90 in - SW 36.8 mph 43.7 mph N/A   Clear
3:37 PM 26.6 °F 8.9 °F -2.2 °F 29% 29.89 in - SW 36.8 mph 46.0 mph N/A   Clear
3:57 PM 26.6 °F 9.3 °F -0.4 °F 31% 29.88 in - WSW 34.5 mph 40.3 mph N/A   Clear
4:17 PM 24.8 °F 8.4 °F -2.2 °F 31% 29.88 in - SW 27.6 mph 33.4 mph N/A   Clear
4:37 PM 23.0 °F - -4.0 °F 31% 29.88 in - North - - N/A   Clear
4:57 PM 23.0 °F - -4.0 °F 31% 29.87 in - North - - N/A   Clear
5:17 PM 23.0 °F - -2.2 °F 33% 29.86 in - North - - N/A   Clear
5:37 PM 23.0 °F - 1.4 °F 39% 29.86 in - North - - N/A   Scattered Clouds
5:57 PM 23.0 °F - 8.6 °F 54% 29.85 in - North - - N/A   Overcast
6:17 PM 23.0 °F - 10.4 °F 59% 29.85 in - North - - N/A   Overcast
6:37 PM 21.2 °F - 10.4 °F 63% 29.83 in - North - - N/A   Overcast
6:57 PM 21.2 °F - 10.4 °F 63% 29.83 in - North - - N/A   Overcast
7:17 PM 21.2 °F - 10.4 °F 63% 29.84 in - North - - N/A   Overcast
7:57 PM 19.4 °F - 12.2 °F 74% 29.83 in - North - - N/A   Overcast
8:17 PM 19.4 °F - 12.2 °F 74% 29.82 in - North - - N/A   Overcast
8:37 PM 19.4 °F - 12.2 °F 74% 29.81 in - North - - N/A   Overcast
8:57 PM 17.6 °F - 12.2 °F 79% 29.80 in - North - - N/A   Mostly Cloudy
9:17 PM 17.6 °F - 12.2 °F 79% 29.79 in - North - - N/A   Scattered Clouds
9:37 PM 17.6 °F - 10.4 °F 73% 29.77 in - North - - N/A   Scattered Clouds
9:57 PM 17.6 °F - 10.4 °F 73% 29.76 in - North - - N/A   Clear
10:17 PM 15.8 °F - 10.4 °F 79% 29.75 in - North - - N/A   Clear
10:37 PM 15.8 °F - 10.4 °F 79% 29.73 in - North - - N/A   Clear
10:57 PM 15.8 °F - 10.4 °F 79% 29.72 in - North - - N/A   Scattered Clouds
11:17 PM 14.0 °F - 10.4 °F 86% 29.71 in - North - - N/A   Unknown
11:37 PM 12.2 °F - 10.4 °F 92% 29.69 in - North - - N/A   Unknown
11:57 PM 12.2 °F - 12.2 °F 100% 29.67 in - North - - N/A   Unknown